Simultaneous Nadir Overpasses (SNOs) Predictions

Prediction of SNOs between AQUA and METOP-B Satellite Orbit:

Table of predicted SNOs for the next 14.0 days since TLE Epoch: 3/28/2014
Index Date (AQUA) Time (AQUA) Lat,Lon (AQUA) SZA (AQUA ) Date (METOP-B) Time (METOP-B) Lat,Lon (METOP-B) SZA (METOP-B ) Distance(km) Time Diff (sec)
1 03/28/2014 13:15:45 -73.79, 155.57 109.27 03/28/2014 13:15:37 -73.78, 155.60 109.28 1.22 8
2 03/28/2014 14:05:14 73.86, -36.95 70.79 03/28/2014 14:06:15 73.85, -36.90 70.78 2.06 61
3 03/31/2014 08:00:32 73.64, 54.68 69.49 03/31/2014 07:59:20 73.61, 54.28 69.48 13.21 72
4 03/31/2014 08:50:00 -73.77,-137.96 110.39 03/31/2014 08:49:59 -73.77,-138.02 110.39 1.85 1
5 03/31/2014 09:39:29 73.85, 29.51 69.68 03/31/2014 09:40:37 73.83, 29.47 69.66 2.02 68
6 04/03/2014 03:34:47 73.72, 120.96 68.48 04/03/2014 03:33:39 73.73, 120.96 68.50 0.96 68
7 04/03/2014 04:24:14 -73.79, -71.56 111.46 04/03/2014 04:24:20 -73.80, -71.55 111.46 0.67 6
8 04/03/2014 05:13:44 73.93, 95.78 68.67 04/03/2014 05:14:56 73.95, 96.16 68.68 12.19 72
9 04/05/2014 23:08:58 73.72,-172.60 67.40 04/05/2014 23:07:59 73.73,-172.61 67.42 1.29 59
10 04/05/2014 23:58:25 -73.79, -5.11 112.54 04/05/2014 23:58:40 -73.81, -5.11 112.52 1.86 15
11 04/06/2014 00:48:02 74.29, 161.38 67.99 04/06/2014 00:49:10 74.26, 163.33 67.88 58.66 68
12 04/08/2014 18:43:08 73.71,-106.12 66.32 04/08/2014 18:42:20 73.73,-106.21 66.35 3.62 48
13 04/08/2014 19:32:36 -73.83, 61.26 113.57 04/08/2014 19:33:01 -73.81, 61.30 113.59 2.53 25




NCC Satellite Simultaneous Nadir Overpasses (SNOs) Prediction Service
